Regional Weather Roundup
Issued by NWS

Home | Current Version | Previous Version | Graphics & Text | Print | Product List | Glossary On
Versions: 1 2 3 4 5 6 7 8 9 10 11 12 13 14 15 16 17 18 19 20 21 22 23 24 25 26 27 28 29 30 31 32 33 34 35 36 37 38 39 40 41 42 43 44 45 46 47 48 49 50
000
ASUS43 KFSD 280010
RWRSD

WEATHER ROUNDUP FOR SOUTH DAKOTA
NATIONAL WEATHER SERVICE SIOUX FALLS SD
700 PM CDT FRI MAR 27 2015

NOTE: "FAIR" INDICATES FEW OR NO CLOUDS BELOW 12,000 FEET WITH NO
SIGNIFICANT WEATHER AND/OR OBSTRUCTIONS TO VISIBILITY.


SDZ001>005-009-010-012>017-280100-
NORTHWEST AND NORTH CENTRAL SOUTH DAKOTA

CITY           SKY/WX    TMP DP  RH WIND       PRES   REMARKS
BUFFALO          N/A     66  34  30 NW23      29.84R
FAITH            N/A     65  32  29 N17       29.87S
MOBRIDGE       SUNNY     49  34  56 SE13      29.88R
$$

SDZ012>016-024>037-041>051-057-063-072>074-280100-
SOUTHWEST AND SOUTH CENTRAL SOUTH DAKOTA

CITY           SKY/WX    TMP DP  RH WIND       PRES   REMARKS
RAPID CTY ARPT MOSUNNY   66  35  31 N20       29.92S
PIERRE         PTSUNNY   45  33  63 E15       29.89R
CUSTER         MOSUNNY   58  29  33 NW8G18    30.01S
ELLSWORTH AFB  MOSUNNY   66  35  32 N18       29.91S
PHILIP         PTSUNNY   67  33  28 N12       29.87R
PINE RIDGE     CLOUDY    67  35  30 N13G21    29.94R
SPEARFISH      FAIR      63  34  34 NW15G28   29.96S
WINNER         FAIR      53  33  46 E13       29.89F
$$

SDZ004>011-016>023-039-040-280100-
NORTHEAST SOUTH DAKOTA

CITY           SKY/WX    TMP DP  RH WIND       PRES   REMARKS
ABERDEEN       CLOUDY    32  27  81 S15G21    30.00F WCI  22
WATERTOWN      CLOUDY    30  25  81 SE9       30.02F WCI  22
SISSETON         N/A     30  28  92 S7        30.07S WCI  23
$$

SDZ017-020-022-023-036>040-048>070-280100-
SOUTHEAST SOUTH DAKOTA

CITY           SKY/WX    TMP DP  RH WIND       PRES   REMARKS
SIOUX FALLS    CLOUDY    33  21  61 S12       30.06F WCI  24
HURON          CLOUDY    32  28  85 S12       30.02S WCI  23
CHAMBERLAIN    PTCLDY    38  31  76 SE13      29.95S
MITCHELL       CLOUDY    35  27  72 S17       30.02F WCI  25
YANKTON        CLOUDY    34  27  75 SE12      30.07F WCI  25
$$

ABBREVIATIONS USED IN REMARKS
   TC - TEMPERATURE IN CELSIUS
  WCI - WIND CHILL INDEX
   HX - HEAT INDEX
  VSB - VISIBILITY



USA.gov is the U.S. government's official web portal to all federal, state and local government web resources and services.